This is the latest recevied weather packets stored in our database for station/object KE9ADS. If no packets are shown the sender has not sent any weather packets the latest 10 day(s).
| Time | Temp. | Humidity | Pressure | Rain* | Wind** | Luminosity | Snow |
|---|---|---|---|---|---|---|---|
| 1777245231 | 22.78° C | 45% | 1014.2 hPa | 0 mm | - | 72 W/m² | - |
| 1777244629 | 23.33° C | 46% | 1014.2 hPa | 0 mm | - | 82 W/m² | - |
| 1777244028 | 23.33° C | 46% | 1014.3 hPa | 0 mm | - | 97 W/m² | - |
| 1777243428 | 23.33° C | 46% | 1014.3 hPa | 0 mm | - | 110 W/m² | - |
| 1777242826 | 23.33° C | 46% | 1014.4 hPa | 0 mm | - | 131 W/m² | - |
| 1777242224 | 23.33° C | 46% | 1014.5 hPa | 0 mm | - | 125 W/m² | - |
| 1777241619 | 23.33° C | 45% | 1014.6 hPa | 0 mm | - | 146 W/m² | - |
| 1777241014 | 23.33° C | 45% | 1014.8 hPa | 0 mm | - | 153 W/m² | - |
| 1777240410 | 23.33° C | 45% | 1014.8 hPa | 0 mm | - | 159 W/m² | - |
| 1777239805 | 23.33° C | 44% | 1015 hPa | 0 mm | - | 236 W/m² | - |
| 1777239204 | 23.33° C | 45% | 1015 hPa | 0 mm | - | 163 W/m² | - |
| 1777238604 | 23.89° C | 44% | 1015.4 hPa | 0 mm | - | 218 W/m² | - |
| 1777238004 | 24.44° C | 42% | 1015.2 hPa | 0 mm | - | 313 W/m² | - |
| 1777237403 | 24.44° C | 43% | 1015.2 hPa | 0 mm | - | 495 W/m² | - |
| 1777236798 | 24.44° C | 44% | 1015.3 hPa | 0 mm | - | 511 W/m² | - |
| 1777236194 | 24.44° C | 43% | 1015.4 hPa | 0 mm | - | 559 W/m² | - |
| 1777235593 | 23.89° C | 45% | 1015.2 hPa | 0 mm | - | 570 W/m² | - |
| 1777234991 | 24.44° C | 44% | 1015.2 hPa | 0 mm | - | 603 W/m² | - |
| 1777234389 | 23.89° C | 45% | 1015.6 hPa | 0 mm | - | 627 W/m² | - |
| 1777233786 | 24.44° C | 43% | 1015.7 hPa | 0 mm | - | 656 W/m² | - |
| 1777233182 | 23.89° C | 43% | 1015.8 hPa | 0 mm | - | 679 W/m² | - |
| 1777232582 | 23.89° C | 44% | 1015.8 hPa | 0 mm | - | 607 W/m² | - |
| 1777231981 | 23.33° C | 45% | 1016 hPa | 0 mm | - | 653 W/m² | - |
| 1777231381 | 23.89° C | 44% | 1016.1 hPa | 0 mm | - | 757 W/m² | - |
| 1777230779 | 23.33° C | 46% | 1016.4 hPa | 0 mm | - | 683 W/m² | - |
* Rain latest hour (hover to see other rain measurements)
** Current wind speed in m/s (hover to see current wind gust speed)